sat.trackr.live / text

‹ back to catalog

STARLINK-30323

NORAD 57634 · 2023-122C

PAYLOAD ACTIVE UNKNOWN

§ Identity

Operator
Country
US
Launch date
2023-08-17
Launch site
AFETR
Launch vehicle
Mass (kg)
RCS (m²)

Purposes: comms

External: N2YO · Heavens-Above · Gunter

§ Orbital elements

Epoch: 2026-05-25T00:42:46.595808Z

Period
94.27 min
Inclination
43.0043°
Eccentricity
0.0001203
Mean motion
15.27582865 rev/d
Perigee alt
482.2 km
Apogee alt
483.9 km
Semi-major
6,861.2 km
B*
6.9195e-5
RAAN
10.2192°
Arg perigee
272.1489°
Mean anomaly
87.9225°
Rev number
15,401

§ Raw data

STARLINK-303231 57634U 23122C   26145.02970597  .00001643  00000+0  69195-4 0  99992 57634  43.0043  10.2192 0001203 272.1489  87.9225 15.27582865154018

JSON: /api/v1/satellites/57634 · /tle

For live sub-satellite position, see the globe view (requires WebGL).

§ Visibility from observer

Set your observer location to see the next 7 days of passes ≥ 10°. The values pass through the URL so the page stays shareable.

No JS? Fill the form by hand. The geolocation button needs JavaScript.